マクノート彗星

C/2007 Y2 ( McNaught )

English version
Home page
Total 6,336 html files since Dec. 4, 1995
Updated on April 3, 2008

---------------------------------------------------------------------

・ プロフィール

発見日 2007年12月31日
発見光度 19.0等
発見者 R. H. McNaught (Siding Spring Survey)

・ 軌道要素

Epoch 2008 Apr. 4.0 TT = JDT 2454560.5
T 2008 Apr. 8.42368 TT                                  MPC
q   4.2089096            (2000.0)            P               Q
z  +0.0008467      Peri.  257.69062     +0.00297022     +0.56501023
 +/-0.0000629      Node   303.46228     +0.62062190     -0.64799493
e   0.9964362      Incl.   98.50325     -0.78410435     -0.51075044

・ 光度変化

        m1 = 10.5 + 5 logΔ + 10.0 log r

---------------------------------------------------------------------

軌道要素はM.P.E.C. 2008-E14に掲載されたものです。
光度グラフはComet for Windowsで作成したものです。

---------------------------------------------------------------------

Copyright(C) 1995-2008 Seiichi Yoshida (comet@aerith.net). All rights reserved.